Powrót do katalogu

ONEWEB-0355

AktywnyŁącznośćPO
NORAD 49218·PAYLOAD·🇬🇧 United Kingdom

Wystrzelony Sep 14, 2021 z Baikonur Cosmodrome

Loading…

Następne Przeloty (najbliższe 24 godziny)

TLE

ŚwieżeSource: CelesTrak SupGP

Epoka: Sep 14, 2026, 19:29 UTC

1 49218C 21083AJ  26257.81231896 -.00001746  00000+0 -47856-2 0  2576
2 49218  87.8925 302.4021 0001730  93.2508   3.4844 13.13474413    10

Śledź ONEWEB-0355 w czasie rzeczywistym z AllMySat

Download on the App Store